Wind_Speed
28 28 28 29 31 32 33 34 36 36 37 38 39 38 36 35 36 36 37 37 37 34 32 31 30 29 27 26 25 24 23 23 22 23 23 24 24 25
26 26 27 27 28 30 32 32 34 35 37 37 39 38 37 35 35 35 36 37 36 33 32 30 29 28 27 25 24 24 23 23 23 23 24 25 25 25
26 26 26 25 26 27 29 31 33 34 36 37 37 37 36 34 35 35 37 37 34 33 31 30 29 27 26 25 24 23 22 22 22 22 23 23 23 23
27 26 26 26 26 25 27 27 28 31 33 34 35 35 34 33 34 35 35 33 32 31 30 29 27 26 25 23 22 22 22 22 21 21 21 21 21 20
28 28 27 27 27 25 25 25 24 25 26 27 28 29 30 29 30 30 28 28 28 27 27 28 26 25 23 22 22 22 22 21 20 20 20 20 19 18
27 28 28 28 28 27 26 25 23 21 20 21 20 21 23 24 24 25 25 25 25 24 25 25 24 24 23 22 21 21 21 21 20 20 20 20 19 19
28 28 28 29 29 29 29 28 26 24 22 20 20 19 20 21 21 22 22 23 23 23 24 24 24 23 22 21 21 21 21 21 20 20 20 20 20 20
28 28 29 29 30 31 31 30 29 28 27 25 24 23 21 20 20 20 21 23 23 23 22 23 23 23 22 21 21 21 21 21 21 21 22 22 22 22
27 27 28 28 29 31 31 32 32 32 31 30 29 28 27 25 24 23 24 24 24 24 24 25 25 24 23 22 21 21 22 22 22 22 23 24 25 25
25 25 26 27 28 29 30 31 32 33 34 34 34 33 32 31 30 28 28 27 27 27 28 27 27 27 26 24 23 23 23 23 23 23 24 26 28 29
21 22 23 23 25 26 28 29 31 32 34 35 36 36 36 36 35 33 33 32 31 30 30 30 29 28 27 27 27 26 26 25 25 25 26 27 29 30
18 19 19 20 22 23 24 26 27 28 30 32 33 35 36 37 38 38 37 36 36 37 36 33 33 34 33 33 32 31 30 30 29 29 29 30 30 31
18 19 20 21 22 23 25 26 27 28 28 29 30 31 33 35 36 38 39 40 41 41 41 41 40 40 38 38 38 36 35 35 35 34 34 34 33 33
20 21 22 24 25 26 27 28 29 30 30 31 31 32 32 32 33 35 37 39 42 44 44 45 45 45 44 43 42 41 41 40 39 38 38 37 36 35
21 23 24 26 27 27 28 29 30 30 31 32 32 33 34 34 34 34 35 37 39 42 44 46 47 47 47 46 45 46 45 44 43 41 40 40 39 38
22 23 23 24 25 26 26 27 28 29 30 31 32 33 34 35 36 37 38 37 38 39 41 43 45 47 48 48 46 45 46 46 46 45 44 43 42 41
21 22 22 23 24 24 25 25 26 27 27 28 29 31 33 35 36 38 39 39 39 38 39 40 42 43 45 46 46 46 46 46 46 46 45 44 43 43
21 22 23 24 25 26 26 26 26 26 26 27 28 29 31 33 35 37 38 40 40 40 39 39 39 39 41 43 44 44 45 45 44 44 44 44 44 44
22 23 25 26 26 27 27 27 26 26 26 26 26 27 28 30 32 34 37 39 40 41 41 40 39 37 36 37 39 41 42 43 43 43 43 44 44 45
24 25 26 27 28 28 28 27 27 26 25 25 26 26 27 28 29 31 33 36 39 41 42 42 40 39 36 35 34 34 36 38 40 42 43 44 45 45
25 26 26 27 28 29 29 28 27 27 26 26 26 26 26 26 27 28 29 32 35 37 40 41 42 42 40 38 36 34 32 32 34 37 40 42 43 44
25 26 27 28 29 29 30 30 29 28 27 26 26 26 26 26 26 27 27 28 30 33 36 39 41 42 43 42 41 38 36 34 32 31 33 35 38 40
26 28 29 30 30 31 32 32 31 30 28 27 27 27 27 27 27 27 27 27 27 29 31 34 37 41 43 45 45 44 42 39 36 34 32 31 32 34
Wind_Direction
292 293 288 282 275 271 267 266 264 261 261 262 263 264 263 263 261 259 257 254 253 252 251 254 257 258 258 257 257 256 255 254 253 252 252 254 259 265
289 291 290 285 278 273 268 267 266 265 264 263 263 263 263 267 263 260 256 251 247 247 249 251 253 254 255 255 256 255 253 252 251 251 252 255 259 262
284 288 289 288 284 278 275 270 268 267 265 265 263 262 264 264 261 258 253 248 244 244 245 247 249 252 253 253 253 252 251 251 250 249 249 252 255 256
281 284 286 286 285 283 280 277 271 268 267 265 263 262 263 262 257 254 250 245 243 242 242 244 247 249 250 249 249 248 247 246 245 245 244 247 249 247
278 279 280 282 283 284 286 283 278 273 269 267 262 261 258 254 249 245 241 242 243 243 243 244 245 246 247 247 247 246 244 242 240 237 237 237 237 235
277 278 278 278 279 279 281 283 283 281 275 268 260 255 250 245 241 239 238 240 242 244 244 244 245 247 246 245 246 245 241 237 234 230 229 230 230 228
277 277 277 276 276 276 277 277 278 279 278 275 268 261 253 247 244 240 241 242 243 246 246 245 246 248 249 246 244 243 239 234 231 228 228 228 227 226
277 276 276 275 274 273 273 273 273 273 272 271 270 267 262 257 254 248 246 247 249 250 250 249 248 248 250 246 243 241 239 236 233 232 231 230 229 228
279 278 276 275 273 272 271 270 270 270 269 268 266 264 261 258 256 254 252 250 250 252 253 253 250 249 250 248 244 242 241 239 237 237 237 236 234 232
281 279 277 275 273 272 271 270 270 269 268 267 266 264 262 259 256 255 253 250 249 249 249 250 246 245 246 247 245 245 245 244 243 243 243 243 242 239
282 281 279 277 275 273 272 271 270 268 266 266 264 262 260 258 256 252 250 247 244 244 244 243 244 244 245 246 245 245 246 247 246 247 249 250 250 248
288 286 284 283 280 278 277 275 273 271 269 267 266 263 261 259 256 253 250 247 244 243 243 243 243 244 244 243 244 245 247 249 248 248 250 252 254 254
296 295 293 291 288 285 282 280 277 275 273 271 270 268 265 262 259 257 254 249 246 245 244 244 244 244 244 244 246 246 248 251 251 251 251 253 254 255
302 301 299 296 293 289 286 283 281 278 274 272 270 269 267 266 263 261 259 256 252 249 247 246 247 247 248 249 249 249 249 250 252 253 252 253 254 255
306 305 304 301 298 295 291 288 284 281 278 275 272 270 268 266 265 264 262 260 257 255 253 251 251 251 250 250 249 250 251 251 252 253 253 253 254 255
312 312 311 309 307 304 300 296 292 288 283 279 276 272 268 266 265 264 263 262 261 259 256 255 254 254 253 253 252 251 251 252 253 253 253 253 253 253
319 320 319 317 316 314 310 305 300 295 291 286 282 278 273 269 267 265 264 263 262 262 261 260 258 257 256 256 255 253 253 253 252 252 252 252 253 253
324 323 322 320 318 317 315 312 307 302 297 292 288 285 280 275 270 267 264 263 261 260 260 260 260 260 259 258 256 255 252 251 251 252 252 251 251 251
326 326 325 325 323 321 318 315 312 308 303 299 296 293 287 282 276 271 267 264 262 260 259 258 257 257 257 257 256 255 254 252 250 249 249 249 248 247
327 327 327 327 327 325 323 320 317 313 308 304 300 298 294 290 285 279 273 268 264 261 259 257 255 254 252 252 253 253 252 252 249 248 247 247 246 246
325 327 327 328 328 328 328 326 322 319 314 308 304 301 299 297 293 288 282 275 269 265 261 257 254 252 249 247 247 247 247 248 248 247 246 246 245 245
324 328 329 329 329 330 329 328 325 321 316 312 308 305 302 300 298 294 290 284 276 270 265 260 255 252 249 245 242 242 241 241 244 245 245 245 246 245
321 325 327 328 329 330 331 330 327 323 318 314 311 308 305 303 301 298 294 289 284 278 271 264 259 254 250 247 243 240 239 238 238 239 242 245 247 248
Height
5775 5772 5770 5768 5767 5766 5765 5765 5765 5765 5767 5767 5767 5768 5769 5770 5771 5772 5773 5775 5777 5779 5781 5782 5783 5784 5784 5785 5786 5787 5788 5789 5790 5791 5792 5793 5794 5795
5768 5765 5763 5761 5759 5758 5756 5755 5755 5756 5756 5757 5757 5758 5759 5760 5761 5762 5763 5765 5767 5769 5772 5773 5775 5776 5777 5778 5779 5780 5781 5782 5784 5785 5786 5788 5788 5789
5761 5759 5757 5754 5752 5750 5748 5747 5746 5746 5746 5747 5747 5748 5749 5750 5751 5752 5753 5755 5757 5760 5762 5765 5766 5768 5770 5771 5772 5773 5774 5776 5777 5779 5780 5782 5783 5783
5753 5752 5750 5748 5746 5744 5742 5740 5738 5738 5737 5737 5737 5738 5739 5740 5742 5743 5745 5746 5748 5751 5753 5756 5758 5760 5762 5764 5765 5766 5768 5769 5771 5772 5774 5776 5777 5778
5745 5744 5743 5741 5739 5738 5736 5734 5732 5731 5730 5729 5729 5729 5730 5732 5734 5735 5737 5739 5741 5743 5746 5748 5750 5753 5755 5756 5758 5760 5761 5763 5764 5766 5768 5769 5771 5773
5737 5736 5735 5734 5732 5731 5730 5729 5727 5726 5725 5724 5723 5723 5724 5725 5727 5728 5730 5732 5735 5737 5739 5741 5743 5745 5747 5749 5751 5753 5755 5756 5758 5760 5762 5763 5765 5767
5729 5728 5727 5726 5725 5724 5723 5722 5722 5721 5720 5720 5719 5718 5719 5719 5721 5722 5724 5726 5728 5730 5732 5734 5736 5738 5740 5742 5744 5746 5748 5750 5752 5754 5756 5758 5760 5762
5721 5720 5719 5718 5717 5716 5715 5715 5714 5714 5714 5714 5714 5714 5714 5714 5715 5716 5718 5720 5722 5724 5725 5727 5729 5731 5733 5735 5737 5740 5742 5744 5746 5748 5750 5752 5754 5757
5713 5711 5710 5709 5708 5707 5706 5706 5706 5706 5706 5707 5707 5708 5708 5709 5709 5710 5712 5714 5715 5717 5718 5720 5721 5723 5726 5728 5730 5733 5735 5737 5739 5741 5744 5746 5748 5751
5705 5704 5702 5701 5700 5699 5698 5697 5697 5697 5697 5697 5698 5699 5700 5702 5703 5704 5705 5707 5708 5709 5711 5712 5713 5715 5717 5720 5722 5725 5728 5730 5732 5734 5737 5739 5742 5744
5698 5697 5695 5694 5692 5691 5690 5689 5688 5687 5687 5687 5688 5689 5690 5692 5693 5695 5697 5699 5700 5701 5702 5703 5704 5706 5709 5711 5714 5716 5719 5722 5724 5727 5729 5732 5734 5736
5692 5691 5689 5688 5686 5684 5683 5681 5680 5679 5678 5678 5678 5678 5679 5681 5682 5684 5686 5689 5690 5691 5692 5693 5695 5697 5700 5702 5705 5707 5710 5713 5715 5718 5721 5723 5725 5727
5687 5685 5684 5682 5680 5678 5676 5674 5673 5671 5670 5669 5669 5669 5669 5670 5671 5672 5674 5676 5678 5680 5682 5683 5685 5687 5689 5692 5694 5697 5700 5703 5706 5708 5711 5713 5716 5718
5681 5679 5677 5675 5673 5671 5669 5666 5665 5663 5662 5661 5660 5660 5659 5659 5660 5661 5662 5664 5666 5668 5669 5671 5673 5675 5677 5680 5683 5686 5689 5692 5695 5698 5700 5703 5705 5707
5676 5673 5671 5668 5665 5662 5660 5658 5656 5654 5652 5651 5650 5650 5650 5650 5649 5650 5651 5652 5653 5655 5657 5659 5660 5662 5665 5667 5670 5674 5677 5680 5683 5686 5689 5692 5694 5697
5670 5667 5664 5661 5658 5654 5652 5649 5647 5644 5643 5641 5640 5639 5639 5639 5639 5639 5640 5640 5641 5643 5644 5646 5648 5649 5651 5654 5657 5660 5663 5667 5670 5673 5677 5680 5682 5685
5664 5661 5658 5655 5651 5648 5645 5641 5638 5636 5634 5632 5630 5629 5628 5628 5627 5627 5628 5629 5630 5631 5632 5633 5635 5637 5639 5641 5644 5647 5650 5653 5656 5660 5664 5667 5670 5673
5659 5656 5653 5649 5646 5642 5638 5634 5631 5628 5625 5623 5621 5619 5618 5616 5616 5615 5616 5616 5617 5618 5620 5621 5623 5624 5626 5628 5631 5634 5637 5640 5643 5647 5650 5654 5658 5661
5654 5651 5647 5644 5640 5636 5632 5628 5624 5621 5617 5615 5612 5610 5608 5606 5605 5604 5604 5604 5604 5606 5607 5609 5611 5613 5615 5617 5619 5621 5624 5627 5631 5634 5637 5641 5644 5648
5649 5646 5642 5638 5634 5630 5625 5621 5617 5613 5610 5607 5604 5602 5599 5597 5595 5593 5592 5591 5592 5592 5594 5596 5598 5601 5603 5606 5608 5610 5611 5614 5618 5621 5624 5628 5632 5635
5644 5641 5637 5633 5629 5624 5619 5615 5611 5607 5603 5600 5597 5594 5591 5588 5586 5584 5582 5580 5580 5580 5581 5583 5585 5587 5591 5594 5597 5599 5601 5603 5606 5608 5611 5615 5619 5622
5639 5635 5632 5628 5623 5619 5614 5609 5605 5600 5596 5593 5589 5586 5583 5580 5578 5575 5573 5570 5569 5568 5568 5569 5571 5574 5577 5581 5584 5588 5591 5593 5596 5598 5600 5603 5606 5610
5633 5629 5626 5621 5617 5612 5608 5603 5598 5594 5589 5585 5582 5578 5575 5572 5569 5566 5563 5561 5559 5558 5557 5557 5558 5560 5563 5566 5570 5574 5578 5582 5586 5588 5591 5593 5595 5598